Home   Weather   Wellington   Past weeks

Flag for New Zealand Past Weather in Wellington, New Zealand — Yesterday and Last 2 Weeks

Now
45 °F

Passing clouds.


Feels Like: 35 °F
Forecast: 42 / 48 °F
Wind: 31 mph from Southwest

Location: Wellington Airport

Current Time: Jul 29, 2017 at 1:02:56 am

Latest Report: Jul 29, 2017 at 12:30 am


Visibility: N/A

Pressure: 30.09 "Hg

Humidity: 81%

Dew Point: 39 °F

Location of WellingtonLocation

Past Weather in Wellington — Graph

°F

Wellington Temperature Yesterday

Maximum temperature yesterday: 48 °F (at 12:00 am)
Minimum temperature yesterday: 39 °F (at 9:30 pm)
Average temperature yesterday: 46 °F

High & Low Weather Summary for the Past Weeks

 TemperatureHumidityPressure
High59 °F (Jul 20, 2:00 pm)100% (Jul 14, 12:00 am)30.21 "Hg (Jul 14, 12:00 am)
Low39 °F (Jul 16, 1:30 am)55% (Jul 26, 2:00 pm)28.77 "Hg (Jul 21, 4:00 am)
Average50 °F83%29.75 "Hg
* Reported Jul 14 12:00 am — Jul 29 12:00 am, Wellington. Weather by CustomWeather, © 2017

Note: Actual official high and low records may vary slightly from our data, if they occured in-between our weather recording intervals... More about our weather records

Advertising

Wellington Weather History for the Previous 24 Hours

Scroll right to see more
 ConditionsComfort  
Time TempWeatherWind HumidityBarometerVisibility
12:00 am
Sat, Jul 29
45 °FPartly cloudy.32 mph81%30.09 "HgN/A
11:30 pm
Fri, Jul 28
45 °FPassing clouds.33 mph81%30.09 "HgN/A
11:00 pm45 °FPassing clouds.32 mph81%30.09 "HgN/A
10:30 pm43 °FLight rain. Partly cloudy.28 mph93%30.07 "Hg6 mi
10:00 pm45 °FPassing clouds.32 mph81%30.07 "Hg6 mi
9:30 pm39 °FLight rain. Partly cloudy.32 mph100%30.07 "Hg2 mi
9:00 pm41 °FLight rain. Passing clouds.33 mph93%30.07 "Hg3 mi
8:30 pm43 °FLight rain. Passing clouds.31 mph87%30.07 "Hg3 mi
8:00 pm45 °FLight rain. Mostly cloudy.32 mph81%30.07 "Hg6 mi
7:30 pm45 °FPartly cloudy.31 mph81%30.04 "Hg6 mi
7:00 pm45 °FOvercast.28 mph81%30.04 "HgN/A
6:30 pm45 °FPassing clouds.31 mph81%30.04 "HgN/A
6:00 pm45 °FPartly cloudy.25 mph81%30.04 "HgN/A
5:30 pm45 °FLight rain. Passing clouds.25 mph81%30.01 "HgN/A
5:00 pm45 °FLight rain. Mostly cloudy.25 mph81%30.01 "Hg6 mi
4:30 pm43 °FLight rain. Broken clouds.29 mph87%30.01 "Hg4 mi
4:00 pm43 °FPartly sunny.31 mph93%29.98 "Hg6 mi
3:30 pm41 °FRain. Partly sunny.28 mph93%29.98 "Hg2 mi
3:00 pm45 °FLight rain. Broken clouds.28 mph87%29.95 "Hg4 mi
2:30 pm41 °FRain. Fog.30 mph93%29.98 "Hg2 mi
2:00 pm45 °FLight rain. Broken clouds.29 mph87%29.95 "Hg4 mi
1:30 pm46 °FLight rain. Broken clouds.31 mph82%29.95 "Hg5 mi
1:00 pm46 °FBroken clouds.32 mph82%29.95 "Hg6 mi
12:30 pm46 °FLight rain. Broken clouds.32 mph82%29.95 "Hg6 mi
12:00 pm46 °FBroken clouds.31 mph82%29.95 "Hg5 mi
11:30 am46 °FLight rain. Cloudy.31 mph82%29.95 "Hg4 mi
11:00 am46 °FMore clouds than sun.30 mph82%29.92 "HgN/A
10:30 am46 °FPartly sunny.29 mph76%29.92 "HgN/A
10:00 am46 °FBroken clouds.32 mph82%29.92 "Hg6 mi
9:30 am46 °FPartly sunny.30 mph82%29.89 "HgN/A
9:00 am46 °FLight rain. Mostly cloudy.31 mph87%29.86 "Hg5 mi
8:30 am46 °FLight rain. Broken clouds.32 mph87%29.86 "Hg6 mi
8:00 am46 °FLight rain. Partly sunny.31 mph87%29.86 "Hg4 mi
7:30 am45 °FPartly cloudy.30 mph93%29.83 "Hg4 mi
7:00 am48 °FMostly cloudy.26 mph71%29.83 "HgN/A
6:30 am48 °FPartly cloudy.31 mph82%29.80 "Hg6 mi
6:00 am48 °FMostly cloudy.31 mph82%29.80 "Hg6 mi
5:30 am48 °FMostly cloudy.29 mph71%29.77 "HgN/A
5:00 am48 °FLight rain. Partly cloudy.29 mph76%29.77 "Hg5 mi
4:30 am48 °FPartly cloudy.26 mph76%29.77 "HgN/A
4:00 am48 °FPartly cloudy.28 mph76%29.77 "HgN/A
3:30 am46 °FLight rain. Mostly cloudy.28 mph87%29.77 "Hg5 mi
3:00 am48 °FPartly cloudy.28 mph76%29.74 "HgN/A
2:30 am48 °FOvercast.26 mph76%29.74 "HgN/A
2:00 am48 °FPartly cloudy.26 mph76%29.74 "HgN/A
1:30 am48 °FMostly cloudy.28 mph82%29.74 "HgN/A
1:00 am48 °FLight rain. Mostly cloudy.25 mph87%29.71 "HgN/A
Weather by CustomWeather, © 2017

See weather overviewHow to use our weather pages